Simultaneous Nadir Overpasses (SNOs) Predictions

Prediction of SNOs between TERRA and METOP-C Satellite Orbit:

Table of predicted SNOs for the next 14.0 days since TLE Epoch: 3/18/2023
Index Date (TERRA) Time (TERRA) Lat,Lon (TERRA) SZA (TERRA ) Date (METOP-C) Time (METOP-C) Lat,Lon (METOP-C) SZA (METOP-C ) Distance(km) Time Diff (sec)
1 03/18/2023 10:41:51 -80.85,-126.60 96.85 03/18/2023 10:40:43 -80.85,-126.73 96.89 2.37 68
2 03/18/2023 11:31:10 80.92, 41.96 83.28 03/18/2023 11:31:19 80.92, 41.90 83.27 1.22 9
3 03/21/2023 02:53:03 -80.87, -9.19 97.86 03/21/2023 02:52:18 -80.87, -9.22 97.87 0.64 45
4 03/21/2023 03:42:23 80.92, 159.01 82.22 03/21/2023 03:42:55 80.92, 159.07 82.24 1.38 32
5 03/23/2023 19:04:14 -80.90, 108.30 98.84 03/23/2023 19:03:53 -80.89, 108.20 98.87 2.03 21
6 03/23/2023 19:53:34 80.94, -83.52 81.23 03/23/2023 19:54:30 80.94, -83.48 81.25 0.66 56
7 03/26/2023 10:26:26 80.13, 50.10 78.85 03/26/2023 10:25:13 80.30, 49.19 78.92 25.56 73
8 03/26/2023 11:15:25 -80.90,-134.47 99.87 03/26/2023 11:15:28 -80.90,-134.46 99.87 0.11 3
9 03/29/2023 02:37:12 80.87, 174.69 79.07 03/29/2023 02:36:23 80.86, 174.54 79.03 2.93 49
10 03/29/2023 03:26:34 -80.91, -17.17 100.88 03/29/2023 03:27:02 -80.91, -17.22 100.87 0.91 28
11 03/31/2023 18:48:21 80.89, -67.93 78.08 03/31/2023 18:47:57 80.88, -67.91 78.07 0.38 24



Historial Predications of SNOs between TERRA and METOP-C
